Total_Precipitation_Accumulation
0.03 0.02 0.02 0.02 0.03 0.03 0.02 0.02 0.01 0.01 0.02 0.02 0.02 0.02 0.03 0.02 0.03 0.04 0.05 0.06 0.15 0.14 0.13 0.13 0.18 0.14 0.05 0.06 0.04 0.05 0.06 0.07 0.07 0.07 0.09 0.11 0.13 0.14 0.17 0.21 0.23 0.24
0.02 0.02 0.02 0.02 0.02 0.01 0.01 0.01 0.01 0.03 0.04 0.03 0.02 0.02 0.02 0.02 0.02 0.03 0.03 0.03 0.04 0.04 0.04 0.10 0.06 0.14 0.10 0.11 0.09 0.12 0.11 0.09 0.10 0.08 0.08 0.10 0.12 0.12 0.12 0.14 0.18 0.21
0.04 0.01 0.01 0.01 0.02 0.03 0.02 0.01 0.02 0.02 0.02 0.02 0.02 0.02 0.03 0.03 0.03 0.03 0.03 0.04 0.05 0.09 0.05 0.11 0.10 0.11 0.15 0.12 0.06 0.09 0.10 0.11 0.13 0.12 0.14 0.12 0.11 0.12 0.13 0.13 0.14 0.18
0.02 0.01 0.02 0.02 0.02 0.03 0.02 0.02 0.02 0.03 0.01 0.02 0.02 0.02 0.03 0.04 0.04 0.05 0.05 0.06 0.06 0.06 0.08 0.07 0.08 0.08 0.10 0.06 0.17 0.12 0.13 0.10 0.12 0.13 0.13 0.18 0.16 0.14 0.13 0.13 0.15 0.17
0.01 0.02 0.02 0.02 0.02 0.02 0.02 0.02 0.02 0.01 0.02 0.02 0.03 0.02 0.03 0.03 0.04 0.06 0.06 0.06 0.06 0.08 0.16 0.09 0.08 0.08 0.06 0.06 0.07 0.11 0.08 0.07 0.06 0.07 0.10 0.14 0.15 0.16 0.15 0.16 0.18 0.20
0.01 0.02 0.02 0.02 0.01 0.01 0.03 0.02 0.02 0.05 0.08 0.04 0.04 0.02 0.04 0.04 0.05 0.05 0.06 0.07 0.06 0.07 0.08 0.24 0.12 0.10 0.14 0.07 0.06 0.05 0.07 0.06 0.07 0.06 0.06 0.08 0.08 0.10 0.13 0.16 0.20 0.20
0.01 0.01 0.01 0.02 0.02 0.03 0.03 0.04 0.06 0.09 0.05 0.06 0.12 0.10 0.05 0.05 0.04 0.05 0.06 0.07 0.08 0.08 0.07 0.12 0.08 0.11 0.07 0.07 0.09 0.07 0.08 0.07 0.07 0.07 0.07 0.07 0.08 0.08 0.09 0.14 0.15 0.16
0.01 0.01 0.02 0.02 0.03 0.03 0.03 0.04 0.12 0.09 0.11 0.07 0.11 0.04 0.09 0.05 0.06 0.07 0.07 0.08 0.09 0.09 0.08 0.08 0.13 0.11 0.08 0.08 0.08 0.07 0.08 0.09 0.11 0.13 0.09 0.09 0.08 0.08 0.07 0.09 0.13 0.15
0.02 0.02 0.02 0.02 0.02 0.02 0.07 0.04 0.07 0.09 0.09 0.08 0.06 0.06 0.07 0.09 0.09 0.11 0.11 0.11 0.11 0.10 0.10 0.12 0.13 0.14 0.11 0.14 0.16 0.14 0.12 0.09 0.09 0.09 0.09 0.09 0.08 0.08 0.07 0.08 0.10 0.14
0.03 0.02 0.02 0.03 0.07 0.05 0.04 0.04 0.05 0.06 0.06 0.06 0.08 0.09 0.10 0.09 0.09 0.09 0.10 0.10 0.12 0.12 0.17 0.11 0.12 0.11 0.13 0.16 0.17 0.15 0.17 0.19 0.15 0.12 0.11 0.11 0.12 0.10 0.08 0.08 0.09 0.12
0.03 0.03 0.03 0.03 0.02 0.03 0.02 0.03 0.09 0.05 0.05 0.11 0.09 0.11 0.17 0.11 0.10 0.09 0.11 0.12 0.12 0.10 0.09 0.09 0.10 0.10 0.11 0.11 0.11 0.12 0.15 0.15 0.16 0.16 0.16 0.15 0.14 0.14 0.15 0.14 0.13 0.11
0.02 0.02 0.02 0.02 0.02 0.06 0.03 0.04 0.05 0.06 0.07 0.11 0.17 0.08 0.13 0.12 0.14 0.13 0.13 0.12 0.12 0.12 0.12 0.14 0.12 0.12 0.12 0.15 0.12 0.10 0.11 0.12 0.13 0.13 0.13 0.15 0.16 0.16 0.15 0.15 0.16 0.15
0.01 0.02 0.02 0.02 0.03 0.04 0.05 0.07 0.07 0.07 0.08 0.10 0.11 0.13 0.16 0.16 0.17 0.15 0.15 0.14 0.14 0.14 0.14 0.14 0.14 0.13 0.13 0.12 0.12 0.13 0.14 0.13 0.13 0.13 0.12 0.13 0.13 0.13 0.13 0.14 0.15 0.15
0.02 0.03 0.03 0.04 0.06 0.14 0.07 0.07 0.08 0.10 0.11 0.11 0.14 0.15 0.20 0.20 0.21 0.18 0.17 0.16 0.18 0.18 0.16 0.15 0.16 0.15 0.15 0.14 0.14 0.14 0.14 0.16 0.15 0.18 0.19 0.17 0.15 0.13 0.13 0.13 0.14 0.15
0.02 0.03 0.05 0.07 0.06 0.08 0.08 0.08 0.10 0.14 0.12 0.15 0.20 0.24 0.21 0.21 0.23 0.22 0.21 0.22 0.19 0.19 0.20 0.18 0.19 0.18 0.17 0.18 0.18 0.18 0.19 0.24 0.23 0.24 0.23 0.23 0.21 0.19 0.17 0.15 0.14 0.14
0.04 0.06 0.08 0.10 0.09 0.10 0.10 0.09 0.11 0.13 0.18 0.18 0.23 0.25 0.25 0.21 0.22 0.23 0.26 0.35 0.24 0.22 0.22 0.25 0.23 0.21 0.19 0.20 0.25 0.34 0.41 0.42 0.42 0.40 0.37 0.35 0.33 0.29 0.24 0.20 0.17 0.15
0.06 0.08 0.09 0.09 0.12 0.10 0.11 0.13 0.14 0.17 0.19 0.23 0.24 0.25 0.27 0.31 0.28 0.32 0.31 0.31 0.30 0.31 0.35 0.32 0.30 0.25 0.23 0.30 0.50 0.68 0.65 0.64 0.59 0.50 0.42 0.40 0.36 0.33 0.29 0.23 0.18 0.16
0.08 0.09 0.10 0.11 0.12 0.13 0.15 0.19 0.18 0.21 0.21 0.23 0.30 0.28 0.33 0.33 0.39 0.40 0.33 0.31 0.33 0.34 0.36 0.35 0.35 0.29 0.33 0.52 0.66 0.87 1.02 0.82 0.75 0.64 0.53 0.45 0.40 0.35 0.30 0.25 0.22 0.19
0.09 0.11 0.13 0.14 0.15 0.22 0.17 0.21 0.22 0.24 0.26 0.29 0.33 0.34 0.37 0.41 0.44 0.38 0.38 0.39 0.39 0.44 0.39 0.37 0.37 0.33 0.42 0.62 0.73 1.00 1.17 1.15 0.93 0.73 0.58 0.46 0.38 0.33 0.29 0.26 0.24 0.25
0.12 0.15 0.17 0.18 0.18 0.18 0.19 0.23 0.27 0.29 0.30 0.38 0.37 0.38 0.42 0.45 0.42 0.45 0.44 0.49 0.50 0.51 0.48 0.47 0.44 0.41 0.48 0.75 0.98 1.16 1.35 1.43 1.00 0.82 0.66 0.53 0.43 0.36 0.32 0.29 0.27 0.28
0.16 0.22 0.24 0.21 0.20 0.20 0.22 0.25 0.28 0.28 0.30 0.33 0.38 0.43 0.47 0.49 0.50 0.51 0.52 0.54 0.55 0.63 0.60 0.59 0.50 0.48 0.67 0.96 1.07 1.25 1.33 1.74 1.25 1.07 0.84 0.62 0.48 0.40 0.37 0.34 0.30 0.29
0.19 0.21 0.22 0.25 0.22 0.22 0.27 0.29 0.30 0.31 0.37 0.36 0.41 0.44 0.44 0.46 0.42 0.42 0.43 0.44 0.43 0.47 0.53 0.52 0.41 0.46 0.72 0.96 1.08 1.31 1.58 1.48 1.39 1.07 0.84 0.68 0.53 0.45 0.39 0.35 0.31 0.32
0.20 0.23 0.24 0.23 0.23 0.26 0.27 0.30 0.32 0.31 0.32 0.33 0.39 0.36 0.33 0.31 0.32 0.31 0.33 0.37 0.39 0.39 0.42 0.39 0.36 0.40 0.58 0.87 0.97 1.22 1.66 1.76 1.49 1.08 0.81 0.64 0.51 0.43 0.39 0.36 0.33 0.31
0.21 0.24 0.27 0.25 0.26 0.27 0.25 0.24 0.24 0.27 0.29 0.30 0.36 0.34 0.34 0.33 0.31 0.33 0.33 0.34 0.37 0.39 0.39 0.41 0.37 0.35 0.48 0.69 0.84 1.11 1.30 1.29 1.26 1.13 0.83 0.66 0.57 0.48 0.44 0.42 0.34 0.36
0.24 0.23 0.25 0.25 0.25 0.23 0.22 0.23 0.24 0.26 0.28 0.29 0.32 0.32 0.32 0.30 0.31 0.33 0.32 0.33 0.34 0.36 0.38 0.42 0.40 0.37 0.41 0.63 0.87 1.11 1.19 1.23 1.19 1.07 0.92 0.74 0.67 0.60 0.51 0.42 0.35 0.31
0.22 0.21 0.21 0.24 0.25 0.22 0.20 0.22 0.23 0.26 0.24 0.27 0.28 0.27 0.28 0.27 0.27 0.28 0.28 0.31 0.34 0.40 0.42 0.42 0.41 0.39 0.43 0.56 0.82 0.88 1.11 1.05 0.96 0.91 0.90 0.80 0.73 0.65 0.66 0.59 0.46 0.41